TimeEST,TemperatureF,Dew PointF,Humidity,Sea Level PressureIn,VisibilityMPH,Wind Direction,Wind SpeedMPH,Gust SpeedMPH,PrecipitationIn,Events,Conditions,WindDirDegrees,DateUTC
12:52 AM,32.0,30.0,92,29.93,4.0,Calm,Calm,-,N/A,,Overcast,0,2013-12-03 05:52:00
1:24 AM,32.0,30.0,92,29.89,4.0,Calm,Calm,-,N/A,,Overcast,0,2013-12-03 06:24:00
1:35 AM,32.0,30.0,92,29.90,4.0,Calm,Calm,-,N/A,,Overcast,0,2013-12-03 06:35:00
1:52 AM,32.0,30.0,92,29.94,5.0,Calm,Calm,-,N/A,,Overcast,0,2013-12-03 06:52:00
2:31 AM,33.1,30.0,89,29.91,5.0,Calm,Calm,-,N/A,,Overcast,0,2013-12-03 07:31:00
2:52 AM,32.0,30.0,92,29.94,3.0,Calm,Calm,-,N/A,,Overcast,0,2013-12-03 07:52:00
3:16 AM,32.0,30.0,92,29.90,3.0,Calm,Calm,-,N/A,,Overcast,0,2013-12-03 08:16:00
3:28 AM,32.0,30.0,92,29.90,3.0,Calm,Calm,-,N/A,,Overcast,0,2013-12-03 08:28:00
3:45 AM,32.0,30.0,92,29.89,2.5,Calm,Calm,-,N/A,,Overcast,0,2013-12-03 08:45:00
3:52 AM,32.0,30.0,92,29.93,2.0,Calm,Calm,-,N/A,,Overcast,0,2013-12-03 08:52:00
3:57 AM,32.0,28.9,88,29.89,1.0,Calm,Calm,-,N/A,,Overcast,0,2013-12-03 08:57:00
4:00 AM,30.9,28.9,92,29.89,0.8,Calm,Calm,-,N/A,,Overcast,0,2013-12-03 09:00:00
4:52 AM,32.0,30.0,92,29.93,0.8,Calm,Calm,-,N/A,,Overcast,0,2013-12-03 09:52:00
5:00 AM,32.0,30.0,92,29.89,1.0,Calm,Calm,-,N/A,,Overcast,0,2013-12-03 10:00:00
5:07 AM,32.0,30.0,92,29.90,0.5,Calm,Calm,-,N/A,Fog,Fog,0,2013-12-03 10:07:00
5:52 AM,32.0,30.9,96,29.95,1.0,Calm,Calm,-,N/A,,Overcast,0,2013-12-03 10:52:00
5:57 AM,32.0,30.9,96,29.91,2.0,Calm,Calm,-,N/A,,Overcast,0,2013-12-03 10:57:00
6:24 AM,32.0,30.0,92,29.91,1.5,Calm,Calm,-,N/A,,Overcast,0,2013-12-03 11:24:00
6:52 AM,33.1,30.0,89,29.95,1.5,Calm,Calm,-,N/A,,Overcast,0,2013-12-03 11:52:00
7:07 AM,33.1,30.9,92,29.90,1.0,Calm,Calm,-,N/A,,Overcast,0,2013-12-03 12:07:00
7:19 AM,33.1,30.9,92,29.91,0.8,Calm,Calm,-,N/A,,Overcast,0,2013-12-03 12:19:00
7:52 AM,33.1,30.9,92,29.95,0.2,North,3.5,-,N/A,Fog,Fog,350,2013-12-03 12:52:00
8:52 AM,33.1,30.9,92,29.96,0.2,Calm,Calm,-,N/A,Fog,Fog,0,2013-12-03 13:52:00
9:52 AM,32.0,30.0,92,29.95,0.2,NW,3.5,-,N/A,Fog,Fog,320,2013-12-03 14:52:00
10:52 AM,33.1,30.9,92,29.94,0.2,Calm,Calm,-,N/A,Fog,Fog,0,2013-12-03 15:52:00
11:40 AM,33.1,30.9,92,29.89,1.2,Calm,Calm,-,N/A,,Overcast,0,2013-12-03 16:40:00
11:52 AM,33.1,30.9,92,29.93,1.2,Calm,Calm,-,N/A,,Overcast,0,2013-12-03 16:52:00
12:24 PM,33.1,30.0,89,29.88,2.5,Calm,Calm,-,N/A,,Overcast,0,2013-12-03 17:24:00
12:31 PM,33.1,30.0,89,29.88,4.0,Calm,Calm,-,N/A,,Overcast,0,2013-12-03 17:31:00
12:52 PM,33.1,30.0,89,29.92,4.0,NW,4.6,-,N/A,,Overcast,310,2013-12-03 17:52:00
1:52 PM,33.1,30.9,92,29.91,5.0,Calm,Calm,-,N/A,,Overcast,0,2013-12-03 18:52:00
2:33 PM,33.1,30.0,89,29.88,6.0,WNW,3.5,-,N/A,,Overcast,300,2013-12-03 19:33:00
2:52 PM,33.1,30.0,89,29.92,6.0,Calm,Calm,-,N/A,,Overcast,0,2013-12-03 19:52:00
3:52 PM,33.1,30.0,89,29.94,5.0,Calm,Calm,-,N/A,,Overcast,0,2013-12-03 20:52:00
4:21 PM,33.1,28.9,85,29.91,5.0,WNW,4.6,-,N/A,,Overcast,300,2013-12-03 21:21:00
4:52 PM,33.1,30.0,89,29.96,4.0,Calm,Calm,-,N/A,,Overcast,0,2013-12-03 21:52:00
5:52 PM,32.0,30.0,92,29.96,4.0,South,3.5,-,N/A,,Overcast,190,2013-12-03 22:52:00
6:15 PM,32.0,28.9,88,29.92,4.0,Calm,Calm,-,N/A,,Overcast,0,2013-12-03 23:15:00
6:52 PM,30.9,28.9,92,29.97,3.0,Calm,Calm,-,N/A,,Mostly Cloudy,0,2013-12-03 23:52:00
7:23 PM,32.0,28.9,88,29.92,3.0,Calm,Calm,-,N/A,,Overcast,0,2013-12-04 00:23:00
7:52 PM,32.0,28.9,88,29.97,4.0,Calm,Calm,-,N/A,,Overcast,0,2013-12-04 00:52:00
8:17 PM,32.0,30.0,92,29.92,4.0,Calm,Calm,-,N/A,,Overcast,0,2013-12-04 01:17:00
8:52 PM,32.0,30.0,92,29.97,4.0,Calm,Calm,-,N/A,,Overcast,0,2013-12-04 01:52:00
8:59 PM,32.0,30.0,92,29.92,4.0,Calm,Calm,-,N/A,,Overcast,0,2013-12-04 01:59:00
9:25 PM,32.0,30.0,92,29.92,3.0,Calm,Calm,-,N/A,,Overcast,0,2013-12-04 02:25:00
9:52 PM,32.0,30.0,92,29.96,3.0,Calm,Calm,-,N/A,,Overcast,0,2013-12-04 02:52:00
10:06 PM,32.0,30.0,92,29.92,2.5,Calm,Calm,-,N/A,,Overcast,0,2013-12-04 03:06:00
10:11 PM,32.0,30.0,92,29.91,2.5,Calm,Calm,-,N/A,,Overcast,0,2013-12-04 03:11:00
10:25 PM,32.0,28.9,88,29.92,3.0,Calm,Calm,-,N/A,,Overcast,0,2013-12-04 03:25:00
10:52 PM,30.9,28.9,92,29.96,2.5,Calm,Calm,-,N/A,,Overcast,0,2013-12-04 03:52:00
11:07 PM,30.9,28.9,92,29.92,3.0,Calm,Calm,-,N/A,,Overcast,0,2013-12-04 04:07:00
11:52 PM,32.0,28.0,85,29.97,7.0,Calm,Calm,-,N/A,,Overcast,0,2013-12-04 04:52:00